• In Hungary
  • List of Countries
  • For 7 days
  • Water Temperature
  • Satellite Maps
  • Weather Map
  • News
  • Weather Widgets
  • user-avatar
    Login

    Hourly Weather Puerto Manzanillo

    Today, 17 August, Friday

    Time Temperature Precipitation Wind Pressure Humidity
    00:00 +27°C° 0.1 mm 1 mps 756 mmHg 71%
    01:00 +27°C° 0 mm 1 mps 756 mmHg 67%
    02:00 +27°C° 0 mm 1 mps 756 mmHg 63%
    03:00 +27°C° 0 mm 1 mps 756 mmHg 60%
    04:00 +27°C° 0 mm 1 mps 756 mmHg 58%
    05:00 +27°C° 0 mm 2 mps 756 mmHg 57%
    06:00 +27°C° 0 mm 2 mps 756 mmHg 55%
    07:00 +29°C° 0 mm 2 mps 756 mmHg 51%
    08:00 +32°C° 0 mm 2 mps 756 mmHg 47%
    09:00 +35°C° 0 mm 1 mps 757 mmHg 42%
    10:00 +36°C° 0 mm 2 mps 756 mmHg 41%
    11:00 +37°C° 0 mm 2 mps 756 mmHg 41%
    12:00 +38°C° 0 mm 3 mps 756 mmHg 40%
    13:00 +37°C° 0.4 mm 3 mps 756 mmHg 43%
    14:00 +36°C° 0.4 mm 3 mps 755 mmHg 46%
    15:00 +35°C° 0.4 mm 3 mps 755 mmHg 50%
    16:00 +33°C° 1.1 mm 3 mps 755 mmHg 59%
    17:00 +30°C° 1.1 mm 2 mps 755 mmHg 68%
    18:00 +28°C° 1.1 mm 1 mps 755 mmHg 77%
    19:00 +28°C° 0.8 mm 1 mps 756 mmHg 77%
    20:00 +28°C° 0.8 mm 1 mps 756 mmHg 76%
    21:00 +27°C° 0.8 mm 1 mps 757 mmHg 76%
    22:00 +27°C° 0.1 mm 1 mps 757 mmHg 71%
    23:00 +27°C° 0.1 mm 1 mps 756 mmHg 67%

    Tomorrow, 18 August, Saturday

    Time Temperature Precipitation Wind Pressure Humidity
    00:00 +27°C° 0.1 mm 2 mps 756 mmHg 62%
    01:00 +27°C° 0 mm 2 mps 756 mmHg 61%
    02:00 +27°C° 0 mm 2 mps 756 mmHg 60%
    03:00 +27°C° 0 mm 2 mps 755 mmHg 59%
    04:00 +27°C° 0.1 mm 2 mps 755 mmHg 60%
    05:00 +27°C° 0.1 mm 2 mps 755 mmHg 61%
    06:00 +27°C° 0.1 mm 2 mps 756 mmHg 62%
    07:00 +29°C° 0.1 mm 2 mps 756 mmHg 58%
    08:00 +32°C° 0.1 mm 2 mps 756 mmHg 53%
    09:00 +35°C° 0.1 mm 2 mps 757 mmHg 49%
    10:00 +36°C° 0.1 mm 2 mps 756 mmHg 48%
    11:00 +37°C° 0.1 mm 2 mps 756 mmHg 46%
    12:00 +37°C° 0.1 mm 2 mps 755 mmHg 45%
    13:00 +37°C° 0.1 mm 3 mps 755 mmHg 47%
    14:00 +36°C° 0.1 mm 3 mps 754 mmHg 49%
    15:00 +36°C° 0.1 mm 3 mps 753 mmHg 50%
    16:00 +34°C° 0 mm 2 mps 754 mmHg 59%
    17:00 +31°C° 0 mm 2 mps 754 mmHg 68%
    18:00 +29°C° 0 mm 2 mps 754 mmHg 76%
    19:00 +28°C° 0.3 mm 1 mps 754 mmHg 77%
    20:00 +28°C° 0.3 mm 1 mps 755 mmHg 78%
    21:00 +27°C° 0.3 mm 1 mps 756 mmHg 79%
    22:00 +27°C° 0.3 mm 1 mps 756 mmHg 76%
    23:00 +27°C° 0.3 mm 1 mps 755 mmHg 72%

    Day after tomorrow, 19 August, Sunday

    Time Temperature Precipitation Wind Pressure Humidity
    00:00 +27°C° 0.3 mm 1 mps 755 mmHg 68%
    01:00 +27°C° 0.1 mm 1 mps 755 mmHg 65%
    02:00 +27°C° 0.1 mm 2 mps 754 mmHg 62%
    03:00 +27°C° 0.1 mm 2 mps 754 mmHg 59%
    04:00 +27°C° 0.1 mm 2 mps 754 mmHg 59%
    05:00 +27°C° 0.1 mm 2 mps 754 mmHg 58%
    06:00 +27°C° 0.1 mm 2 mps 754 mmHg 57%
    07:00 +29°C° 0 mm 2 mps 755 mmHg 54%
    08:00 +32°C° 0 mm 2 mps 755 mmHg 50%
    09:00 +35°C° 0 mm 2 mps 756 mmHg 47%
    10:00 +36°C° 0.1 mm 2 mps 755 mmHg 46%
    11:00 +36°C° 0.1 mm 2 mps 755 mmHg 45%
    12:00 +37°C° 0.1 mm 3 mps 755 mmHg 44%
    13:00 +36°C° 0.4 mm 3 mps 754 mmHg 48%
    14:00 +35°C° 0.4 mm 3 mps 754 mmHg 51%
    15:00 +35°C° 0.4 mm 3 mps 753 mmHg 55%
    16:00 +32°C° 0.3 mm 2 mps 753 mmHg 62%
    17:00 +30°C° 0.3 mm 2 mps 754 mmHg 70%
    18:00 +29°C° 0.3 mm 1 mps 754 mmHg 78%
    19:00 +28°C° 0.3 mm 1 mps 754 mmHg 78%
    20:00 +28°C° 0.3 mm 1 mps 755 mmHg 78%
    21:00 +28°C° 0.3 mm 1 mps 755 mmHg 78%
    22:00 +28°C° 0.4 mm 1 mps 755 mmHg 76%
    23:00 +28°C° 0.4 mm 1 mps 755 mmHg 73%

    20 August, Monday

    Time Temperature Precipitation Wind Pressure Humidity
    00:00 +28°C° 0.4 mm 2 mps 755 mmHg 71%
    01:00 +28°C° 0.1 mm 2 mps 755 mmHg 68%
    02:00 +28°C° 0.1 mm 2 mps 754 mmHg 66%
    03:00 +28°C° 0.1 mm 2 mps 754 mmHg 63%
    04:00 +28°C° 0 mm 2 mps 754 mmHg 62%
    05:00 +28°C° 0 mm 2 mps 754 mmHg 61%
    06:00 +28°C° 0 mm 2 mps 755 mmHg 60%
    07:00 +30°C° 0 mm 2 mps 755 mmHg 54%
    08:00 +32°C° 0 mm 2 mps 756 mmHg 48%
    09:00 +35°C° 0 mm 2 mps 756 mmHg 43%
    10:00 +36°C° 0.1 mm 2 mps 756 mmHg 43%
    11:00 +36°C° 0.1 mm 2 mps 755 mmHg 43%
    12:00 +37°C° 0.1 mm 2 mps 755 mmHg 43%
    13:00 +36°C° 0.5 mm 3 mps 754 mmHg 46%
    14:00 +35°C° 0.5 mm 3 mps 754 mmHg 49%
    15:00 +35°C° 0.5 mm 3 mps 753 mmHg 52%
    16:00 +32°C° 0.3 mm 2 mps 754 mmHg 60%
    17:00 +30°C° 0.3 mm 2 mps 754 mmHg 68%
    18:00 +29°C° 0.3 mm 1 mps 754 mmHg 75%
    19:00 +28°C° 0.1 mm 1 mps 755 mmHg 75%
    20:00 +28°C° 0.1 mm 1 mps 755 mmHg 76%
    21:00 +28°C° 0.1 mm 1 mps 756 mmHg 76%
    22:00 +28°C° 0.1 mm 1 mps 756 mmHg 75%
    23:00 +28°C° 0.1 mm 1 mps 756 mmHg 73%

    21 August, Tuesday

    Time Temperature Precipitation Wind Pressure Humidity
    00:00 +28°C° 0.1 mm 1 mps 756 mmHg 72%
    01:00 +27°C° 0.1 mm 1 mps 755 mmHg 71%
    02:00 +27°C° 0.1 mm 1 mps 755 mmHg 70%
    03:00 +27°C° 0.1 mm 1 mps 754 mmHg 68%
    04:00 +27°C° 0 mm 1 mps 755 mmHg 67%
    05:00 +27°C° 0 mm 2 mps 755 mmHg 66%
    06:00 +27°C° 0 mm 2 mps 755 mmHg 66%
    07:00 +29°C° 0 mm 2 mps 756 mmHg 59%
    08:00 +32°C° 0 mm 2 mps 756 mmHg 53%
    09:00 +35°C° 0 mm 2 mps 756 mmHg 47%
    10:00 +36°C° 0 mm 2 mps 756 mmHg 45%
    11:00 +37°C° 0 mm 3 mps 755 mmHg 44%
    12:00 +37°C° 0 mm 3 mps 755 mmHg 42%
    13:00 +37°C° 0.5 mm 3 mps 754 mmHg 45%
    14:00 +36°C° 0.5 mm 4 mps 754 mmHg 48%
    15:00 +35°C° 0.5 mm 4 mps 753 mmHg 51%
    16:00 +33°C° 0.8 mm 4 mps 754 mmHg 59%
    17:00 +31°C° 0.8 mm 3 mps 754 mmHg 68%
    18:00 +29°C° 0.8 mm 3 mps 755 mmHg 76%
    19:00 +28°C° 0.5 mm 3 mps 755 mmHg 76%
    20:00 +28°C° 0.5 mm 2 mps 756 mmHg 75%
    21:00 +28°C° 0.5 mm 2 mps 756 mmHg 75%
    22:00 +28°C° 0.2 mm 2 mps 756 mmHg 71%
    23:00 +28°C° 0.2 mm 2 mps 755 mmHg 67%

    22 August, Wednesday

    Time Temperature Precipitation Wind Pressure Humidity
    00:00 +28°C° 0.2 mm 2 mps 755 mmHg 63%
    01:00 +28°C° 0 mm 3 mps 755 mmHg 62%
    02:00 +27°C° 0 mm 3 mps 754 mmHg 61%
    03:00 +27°C° 0 mm 3 mps 754 mmHg 60%
    04:00 +27°C° 0 mm 3 mps 754 mmHg 61%
    05:00 +27°C° 0 mm 3 mps 754 mmHg 61%
    06:00 +28°C° 0 mm 3 mps 755 mmHg 62%
    07:00 +30°C° 0.2 mm 3 mps 755 mmHg 59%
    08:00 +33°C° 0.2 mm 3 mps 755 mmHg 55%
    09:00 +35°C° 0.2 mm 2 mps 756 mmHg 51%
    10:00 +36°C° 0.7 mm 3 mps 755 mmHg 49%
    11:00 +36°C° 0.7 mm 3 mps 755 mmHg 47%
    12:00 +37°C° 0.7 mm 3 mps 754 mmHg 44%
    13:00 +36°C° 0.6 mm 3 mps 754 mmHg 47%
    14:00 +36°C° 0.6 mm 3 mps 753 mmHg 50%
    15:00 +35°C° 0.6 mm 3 mps 753 mmHg 53%
    16:00 +32°C° 0.7 mm 2 mps 753 mmHg 60%
    17:00 +31°C° 0.7 mm 2 mps 754 mmHg 67%
    18:00 +29°C° 0.7 mm 2 mps 754 mmHg 74%
    19:00 +29°C° 0.7 mm 2 mps 755 mmHg 75%
    20:00 +28°C° 0.7 mm 2 mps 755 mmHg 76%
    21:00 +28°C° 0.7 mm 1 mps 756 mmHg 77%
    22:00 +28°C° 0.4 mm 2 mps 755 mmHg 74%
    23:00 +28°C° 0.4 mm 2 mps 755 mmHg 71%
    Show more